Location: Cran-Gévrier
(45.9039°N, 6.1012°E)
Time: 13:01:17
(UTC+00:00)

PCSat - Visible Passes

Search period start: 05 December 2023 00:00
Search period end: 15 December 2023 00:00
Orbit: 784 x 792 km, 67.1° (Epoch: 04 December)

Date Brightness Start Highest point End Pass type
(mag) Time Alt. Az. Time Alt. Az. Time Alt. Az.
05 Dec 10.1 04:03:40 51° NE 04:03:40 51° NE 04:07:43 10° NNE visible
05 Dec 10.8 05:44:23 18° WNW 05:46:19 21° NW 05:50:26 10° NNE visible
06 Dec 11.3 03:33:44 27° NE 03:33:44 27° NE 03:36:10 10° NE visible
06 Dec 10.6 05:14:27 26° NW 05:14:35 26° NW 05:19:08 10° NNE visible
07 Dec 12.1 03:03:39 15° NE 03:03:39 15° NE 03:04:34 10° NE visible
07 Dec 10.7 04:44:22 28° NNW 04:44:22 28° NNW 04:47:48 10° NNE visible
07 Dec 11.5 06:27:01 10° NNW 06:28:02 10° NNW 06:29:03 10° N visible
08 Dec 11.2 04:14:09 23° N 04:14:09 23° N 04:16:26 10° NNE visible
08 Dec 11.4 05:54:50 11° NW 05:56:09 12° NNW 05:58:21 10° N visible
09 Dec 11.8 03:43:50 17° NNE 03:43:50 17° NNE 03:45:01 10° NNE visible
09 Dec 11.3 05:24:32 15° NNW 05:24:32 15° NNW 05:27:16 10° N visible
10 Dec 12.3 03:13:28 11° NNE 03:13:28 11° NNE 03:13:35 10° NNE visible
10 Dec 11.4 04:54:09 16° NNW 04:54:09 16° NNW 04:56:04 10° N visible
11 Dec 11.7 04:23:42 14° N 04:23:42 14° N 04:24:49 10° NNE visible
12 Dec 12.0 03:53:13 11° NNE 03:53:13 11° NNE 03:53:30 10° NNE visible
13 Dec 11.8 05:03:22 10° N 05:03:22 10° N 05:03:29 10° N visible
